TimeMDT,TemperatureF,Dew PointF,Humidity,Sea Level PressureIn,VisibilityMPH,Wind Direction,Wind SpeedMPH,Gust SpeedMPH,PrecipitationIn,Events,Conditions,WindDirDegrees,DateUTC
12:15 AM,61.9,32.0,33,29.96,10.0,West,11.5,-,N/A,,Clear,270,2013-10-09 06:15:00
12:35 AM,61.2,31.8,33,29.96,10.0,West,10.4,-,N/A,,Clear,270,2013-10-09 06:35:00
12:55 AM,60.6,31.8,34,29.96,10.0,West,9.2,-,N/A,,Clear,260,2013-10-09 06:55:00
1:15 AM,59.7,32.0,35,29.96,10.0,West,10.4,-,N/A,,Clear,270,2013-10-09 07:15:00
1:35 AM,60.1,32.0,35,29.96,10.0,West,9.2,-,N/A,,Clear,260,2013-10-09 07:35:00
1:55 AM,59.9,31.8,35,29.97,10.0,West,8.1,-,N/A,,Clear,260,2013-10-09 07:55:00
2:15 AM,58.3,31.6,36,29.97,10.0,WNW,3.5,-,N/A,,Clear,290,2013-10-09 08:15:00
2:35 AM,55.6,32.0,41,29.98,10.0,Calm,Calm,-,N/A,,Clear,0,2013-10-09 08:35:00
2:55 AM,59.5,31.6,35,29.98,10.0,Calm,Calm,-,N/A,,Clear,0,2013-10-09 08:55:00
3:15 AM,56.1,31.8,40,29.98,10.0,Calm,Calm,-,N/A,,Clear,0,2013-10-09 09:15:00
3:35 AM,55.0,30.7,40,29.97,10.0,Calm,Calm,-,N/A,,Clear,0,2013-10-09 09:35:00
3:55 AM,55.9,31.1,39,29.97,10.0,West,4.6,-,N/A,,Clear,260,2013-10-09 09:55:00
4:15 AM,54.9,31.1,40,29.97,10.0,West,5.8,-,N/A,,Clear,270,2013-10-09 10:15:00
4:35 AM,52.2,31.3,45,29.97,10.0,WSW,4.6,-,N/A,,Clear,240,2013-10-09 10:35:00
4:55 AM,52.7,31.1,44,29.98,10.0,West,5.8,-,N/A,,Clear,260,2013-10-09 10:55:00
5:15 AM,51.8,30.9,45,29.98,10.0,West,6.9,-,N/A,,Clear,260,2013-10-09 11:15:00
5:35 AM,48.6,30.2,49,29.98,10.0,West,4.6,-,N/A,,Clear,260,2013-10-09 11:35:00
5:55 AM,50.0,30.4,47,29.98,10.0,West,5.8,-,N/A,,Clear,260,2013-10-09 11:55:00
6:15 AM,49.5,30.9,49,29.99,10.0,WSW,4.6,-,N/A,,Clear,250,2013-10-09 12:15:00
6:35 AM,47.8,30.2,50,29.99,10.0,SW,3.5,-,N/A,,Clear,230,2013-10-09 12:35:00
6:55 AM,47.5,31.1,53,29.99,10.0,Calm,Calm,-,N/A,,Clear,0,2013-10-09 12:55:00
7:15 AM,46.4,30.6,54,30.00,10.0,Calm,Calm,-,N/A,,Clear,0,2013-10-09 13:15:00
7:35 AM,50.0,31.6,49,30.00,10.0,ESE,3.5,-,N/A,,Clear,120,2013-10-09 13:35:00
7:55 AM,53.2,32.5,45,30.00,10.0,ESE,4.6,-,N/A,,Clear,110,2013-10-09 13:55:00
8:15 AM,60.1,32.4,35,30.01,10.0,Calm,Calm,-,N/A,,Clear,0,2013-10-09 14:15:00
8:35 AM,63.0,32.2,32,30.02,10.0,Calm,Calm,-,N/A,,Clear,0,2013-10-09 14:35:00
8:55 AM,64.8,33.1,31,30.03,10.0,South,3.5,-,N/A,,Clear,190,2013-10-09 14:55:00
9:15 AM,65.7,34.2,31,30.03,10.0,SSW,3.5,-,N/A,,Clear,210,2013-10-09 15:15:00
9:35 AM,67.6,36.3,32,30.03,10.0,SSW,4.6,-,N/A,,Clear,210,2013-10-09 15:35:00
9:55 AM,69.8,38.8,32,30.03,10.0,SSW,10.4,-,N/A,,Clear,210,2013-10-09 15:55:00
10:15 AM,72.1,42.3,34,30.03,10.0,SW,17.3,25.3,N/A,,Clear,220,2013-10-09 16:15:00
10:35 AM,72.9,41.4,32,30.03,10.0,WSW,18.4,-,N/A,,Clear,240,2013-10-09 16:35:00
10:55 AM,74.3,41.0,30,30.03,10.0,SW,17.3,20.7,N/A,,Clear,220,2013-10-09 16:55:00
11:15 AM,75.2,40.3,28,30.03,10.0,SSW,11.5,17.3,N/A,,Clear,210,2013-10-09 17:15:00
11:35 AM,76.1,38.7,26,30.02,10.0,SW,13.8,21.9,N/A,,Clear,220,2013-10-09 17:35:00
11:55 AM,76.8,37.2,24,30.02,10.0,South,10.4,21.9,N/A,,Clear,190,2013-10-09 17:55:00
12:15 PM,77.9,35.6,22,30.01,10.0,South,9.2,18.4,N/A,,Clear,170,2013-10-09 18:15:00
12:35 PM,78.1,35.4,21,30.00,10.0,South,13.8,19.6,N/A,,Clear,180,2013-10-09 18:35:00
12:55 PM,78.4,34.3,20,30.00,10.0,South,11.5,18.4,N/A,,Clear,180,2013-10-09 18:55:00
1:15 PM,79.2,33.1,19,29.99,10.0,SSW,8.1,-,N/A,,Clear,200,2013-10-09 19:15:00
1:35 PM,79.9,33.4,19,29.98,10.0,SSW,11.5,-,N/A,,Clear,210,2013-10-09 19:35:00
1:55 PM,80.1,34.9,20,29.97,10.0,South,9.2,-,N/A,,Clear,190,2013-10-09 19:55:00
2:15 PM,80.6,36.1,20,29.96,10.0,SSW,10.4,21.9,N/A,,Clear,200,2013-10-09 20:15:00
2:55 PM,81.5,34.0,18,29.95,10.0,South,12.7,20.7,N/A,,Clear,190,2013-10-09 20:55:00
3:15 PM,81.1,35.4,19,29.94,10.0,South,10.4,16.1,N/A,,Clear,180,2013-10-09 21:15:00
3:35 PM,82.4,35.8,19,29.93,10.0,South,11.5,20.7,N/A,,Clear,170,2013-10-09 21:35:00
3:55 PM,83.1,35.1,18,29.92,10.0,South,12.7,23.0,N/A,,Clear,170,2013-10-09 21:55:00
4:15 PM,83.1,35.4,18,29.92,10.0,South,11.5,19.6,N/A,,Mostly Cloudy,190,2013-10-09 22:15:00
4:35 PM,79.9,35.6,20,29.92,10.0,South,11.5,-,N/A,,Scattered Clouds,170,2013-10-09 22:35:00
4:55 PM,82.2,35.2,19,29.91,10.0,South,13.8,19.6,N/A,,Scattered Clouds,180,2013-10-09 22:55:00
5:15 PM,80.1,35.4,20,29.91,10.0,South,11.5,-,N/A,,Scattered Clouds,170,2013-10-09 23:15:00
5:55 PM,79.7,36.1,21,29.91,10.0,SE,12.7,19.6,N/A,,Mostly Cloudy,140,2013-10-09 23:55:00
6:15 PM,79.3,36.5,21,29.91,10.0,SE,10.4,-,N/A,,Mostly Cloudy,140,2013-10-10 00:15:00
6:35 PM,77.9,37.0,23,29.92,10.0,SSE,11.5,-,N/A,,Mostly Cloudy,160,2013-10-10 00:35:00
6:55 PM,70.2,48.0,45,29.92,10.0,South,10.4,-,0.01,Rain-Thunderstorm,Light Thunderstorms and Rain,190,2013-10-10 00:55:00
7:15 PM,71.8,48.4,43,29.92,10.0,South,4.6,-,N/A,,Mostly Cloudy,180,2013-10-10 01:15:00
7:35 PM,68.0,54.5,62,29.94,10.0,South,5.8,-,0.01,Rain,Light Rain,190,2013-10-10 01:35:00
7:55 PM,68.9,52.3,55,29.94,10.0,WSW,4.6,-,0.01,,Mostly Cloudy,250,2013-10-10 01:55:00
8:15 PM,67.6,49.8,53,29.94,10.0,West,9.2,-,N/A,,Scattered Clouds,260,2013-10-10 02:15:00
8:35 PM,67.1,45.1,45,29.94,10.0,WSW,9.2,-,N/A,,Scattered Clouds,250,2013-10-10 02:35:00
8:55 PM,68.0,43.0,40,29.94,10.0,WSW,9.2,-,N/A,,Scattered Clouds,250,2013-10-10 02:55:00
9:15 PM,68.0,42.3,39,29.94,10.0,WSW,9.2,-,N/A,,Scattered Clouds,250,2013-10-10 03:15:00
9:35 PM,67.8,41.7,39,29.95,10.0,WSW,9.2,-,N/A,Thunderstorm,Scattered Clouds,240,2013-10-10 03:35:00
9:55 PM,68.4,40.3,36,29.95,10.0,WSW,9.2,-,N/A,,Mostly Cloudy,240,2013-10-10 03:55:00
10:15 PM,68.9,40.3,35,29.96,10.0,WSW,12.7,-,N/A,Thunderstorm,Mostly Cloudy,250,2013-10-10 04:15:00
10:55 PM,66.2,43.5,44,29.95,10.0,SW,11.5,-,0.01,,Scattered Clouds,230,2013-10-10 04:55:00
11:15 PM,65.3,43.5,45,29.95,10.0,SW,9.2,-,N/A,,Clear,230,2013-10-10 05:15:00
11:35 PM,64.6,42.4,44,29.95,10.0,SW,10.4,-,N/A,,Clear,230,2013-10-10 05:35:00
11:55 PM,63.7,41.9,45,29.95,10.0,SW,8.1,-,N/A,,Clear,230,2013-10-10 05:55:00